Weather History for KDVK - December, 2012

Change the Weather History Date:

Sunday, December 16, 2012

  Actual Average (KLEX) Record (KLEX)
Temperature  
Mean Temperature 56 °F 36 °F  
Max Temperature 60 °F 43 °F 70 °F (1984)
Min Temperature 51 °F 28 °F -6 °F (1989)
Degree Days  
Heating Degree Days 8 29  
Month to date heating degree days 437  
Since 1 July heating degree days 1324  
Cooling Degree Days 0 0  
Month to date cooling degree days 0  
Year to date cooling degree days 1190  
Growing Degree Days 6 (Base 50)    
Moisture  
Dew Point 52 °F    
Average Humidity 86    
Maximum Humidity 94    
Minimum Humidity 77    
Precipitation  
Precipitation 0.00 in 0.13 in 2.59 in (2000)
Month to date precipitation 2.10  
Year to date precipitation 43.34  
Snow  
Snow 0.00 in 0.10 in 2.50 in (2008)
Month to date snowfall 1.0  
Since 1 July snowfall 1.3  
Snow Depth -    
Sea Level Pressure  
Sea Level Pressure 29.80 in    
Wind  
Wind Speed 9 mph (SSW)    
Max Wind Speed 14 mph    
Max Gust Speed 20 mph    
Visibility 10 miles    
Events      
T = Trace of Precipitation, MM = Missing Value Source: NWS Daily Summary

Daily Weather History Graph

Daily Weather History Graph

Search for Another Location

Airport or City:

Trip Planner

Search our weather history database for the weather conditions in past years. The results will help you decide how hot, cold, wet, or windy it might be!

Date:

Astronomy

Dec. 16, 2012 Rise Set
Actual Time 7:47 AM EST 5:22 PM EST
Civil Twilight 7:18 AM EST 5:51 PM EST
Nautical Twilight 6:45 AM EST 6:24 PM EST
Astronomical Twilight 6:13 AM EST 6:56 PM EST
Moon 10:23 AM EST (12/16) 9:31 PM EST (12/16)
Length of Visible Light 10h 33m
Length of Day
9h 34m
Waxing Crescent, 16% of the Moon is Illuminated
Dec 16
Waxing Crescent
Dec 20
First Quarter
Dec 28
Full
Jan 4
Last Quarter
Jan 11
New

Hourly Weather History & Observations

Time (EST) Temp. Dew Point Humidity Pressure Visibility Wind Dir Wind Speed Gust Speed Precip Events Conditions
12:55 AM 53.6 °F 48.2 °F 82% 29.88 in 10.0 mi SSW 10.4 mph - N/A   Overcast
1:15 AM 53.6 °F 48.2 °F 82% 29.88 in 10.0 mi SSW 10.4 mph - N/A   Overcast
1:35 AM 53.6 °F 50.0 °F 88% 29.88 in 10.0 mi SSW 9.2 mph - N/A   Overcast
1:55 AM 55.4 °F 50.0 °F 82% 29.87 in 10.0 mi SSW 9.2 mph - N/A   Overcast
2:15 AM 53.6 °F 50.0 °F 88% 29.87 in 10.0 mi SSW 8.1 mph - N/A   Overcast
2:35 AM 55.4 °F 50.0 °F 82% 29.87 in 10.0 mi SSW 9.2 mph 16.1 mph N/A   Overcast
2:55 AM 55.4 °F 50.0 °F 82% 29.86 in 10.0 mi SSW 8.1 mph - N/A   Overcast
3:15 AM 55.4 °F 51.8 °F 88% 29.86 in 10.0 mi SSW 9.2 mph - N/A   Overcast
3:35 AM 55.4 °F 51.8 °F 88% 29.85 in 10.0 mi SSW 9.2 mph - N/A   Overcast
3:55 AM 55.4 °F 51.8 °F 88% 29.85 in 10.0 mi SSW 8.1 mph - N/A   Overcast
4:15 AM 55.4 °F 51.8 °F 88% 29.85 in 10.0 mi SSW 9.2 mph - N/A   Overcast
4:35 AM 55.4 °F 51.8 °F 88% 29.84 in 10.0 mi SSW 9.2 mph - N/A   Overcast
4:55 AM 55.4 °F 51.8 °F 88% 29.84 in 10.0 mi SSW 10.4 mph 17.3 mph N/A   Overcast
5:15 AM 55.4 °F 51.8 °F 88% 29.83 in 10.0 mi SSW 11.5 mph - N/A   Overcast
5:35 AM 55.4 °F 51.8 °F 88% 29.83 in 10.0 mi South 9.2 mph - N/A   Overcast
5:55 AM 53.6 °F 51.8 °F 94% 29.83 in 10.0 mi South 6.9 mph - N/A   Overcast
6:15 AM 53.6 °F 51.8 °F 94% 29.83 in 10.0 mi South 6.9 mph - N/A   Overcast
6:35 AM 53.6 °F 51.8 °F 94% 29.83 in 10.0 mi SSW 6.9 mph - N/A   Overcast
6:55 AM 53.6 °F 51.8 °F 94% 29.84 in 10.0 mi South 8.1 mph - N/A   Overcast
7:15 AM 53.6 °F 51.8 °F 94% 29.84 in 10.0 mi South 5.8 mph - N/A   Overcast
7:35 AM 53.6 °F 51.8 °F 94% 29.84 in 10.0 mi South 6.9 mph - N/A   Overcast
7:55 AM 53.6 °F 51.8 °F 94% 29.84 in 10.0 mi South 6.9 mph - N/A   Overcast
8:35 AM 53.6 °F 51.8 °F 94% 29.83 in 10.0 mi SSW 4.6 mph - N/A   Overcast
8:55 AM 53.6 °F 51.8 °F 94% 29.84 in 10.0 mi SSW 4.6 mph - N/A   Overcast
9:15 AM 53.6 °F 51.8 °F 94% 29.84 in 10.0 mi South 4.6 mph - N/A   Overcast
9:35 AM 53.6 °F 51.8 °F 94% 29.84 in 10.0 mi South 6.9 mph - N/A   Overcast
9:55 AM 53.6 °F 51.8 °F 94% 29.84 in 10.0 mi SSW 6.9 mph - N/A   Overcast
10:15 AM 53.6 °F 51.8 °F 94% 29.84 in 10.0 mi South 6.9 mph - N/A   Overcast
10:35 AM 55.4 °F 51.8 °F 88% 29.85 in 10.0 mi SSW 5.8 mph - N/A   Overcast
11:15 AM 55.4 °F 53.6 °F 94% 29.83 in 10.0 mi South 8.1 mph - N/A   Overcast
11:35 AM 55.4 °F 53.6 °F 94% 29.82 in 10.0 mi South 8.1 mph - N/A   Overcast
11:55 AM 55.4 °F 53.6 °F 94% 29.81 in 10.0 mi SSW 10.4 mph - N/A   Overcast
12:15 PM 57.2 °F 53.6 °F 88% 29.79 in 10.0 mi SSW 9.2 mph - N/A   Overcast
12:35 PM 57.2 °F 53.6 °F 88% 29.78 in 10.0 mi SSW 8.1 mph - N/A   Overcast
12:55 PM 57.2 °F 53.6 °F 88% 29.78 in 10.0 mi SSW 6.9 mph - N/A   Overcast
1:15 PM 59.0 °F 53.6 °F 82% 29.77 in 10.0 mi SSW 5.8 mph - N/A   Overcast
1:35 PM 59.0 °F 53.6 °F 82% 29.76 in 10.0 mi SSW 8.1 mph - N/A   Overcast
1:55 PM 59.0 °F 53.6 °F 82% 29.76 in 10.0 mi South 8.1 mph - N/A   Overcast
2:15 PM 59.0 °F 53.6 °F 82% 29.77 in 10.0 mi SSW 5.8 mph - N/A   Overcast
2:35 PM 59.0 °F 51.8 °F 77% 29.76 in 10.0 mi SW 9.2 mph 17.3 mph N/A   Overcast
2:55 PM 60.8 °F 53.6 °F 77% 29.75 in 10.0 mi SSW 9.2 mph - N/A   Mostly Cloudy
3:15 PM 60.8 °F 53.6 °F 77% 29.74 in 10.0 mi SW 9.2 mph - N/A   Overcast
3:35 PM 60.8 °F 53.6 °F 77% 29.74 in 10.0 mi SW 11.5 mph - N/A   Mostly Cloudy
3:55 PM 59.0 °F 53.6 °F 82% 29.75 in 10.0 mi SSW 8.1 mph - N/A   Mostly Cloudy
4:15 PM 59.0 °F 53.6 °F 82% 29.74 in 10.0 mi SSW 6.9 mph - N/A   Mostly Cloudy
4:35 PM 59.0 °F 53.6 °F 82% 29.75 in 10.0 mi SSW 6.9 mph - N/A   Overcast
4:55 PM 59.0 °F 53.6 °F 82% 29.75 in 10.0 mi SSW 8.1 mph - N/A   Mostly Cloudy
5:15 PM 59.0 °F 53.6 °F 82% 29.75 in 10.0 mi SSW 10.4 mph - N/A   Mostly Cloudy
5:35 PM 59.0 °F 53.6 °F 82% 29.74 in 10.0 mi SSW 11.5 mph - N/A   Scattered Clouds
5:55 PM 59.0 °F 53.6 °F 82% 29.72 in 10.0 mi SSW 11.5 mph 18.4 mph N/A   Scattered Clouds
6:15 PM 59.0 °F 53.6 °F 82% 29.73 in 10.0 mi SW 8.1 mph - N/A   Mostly Cloudy
6:35 PM 59.0 °F 53.6 °F 82% 29.74 in 10.0 mi SW 10.4 mph 16.1 mph N/A   Overcast
6:55 PM 59.0 °F 53.6 °F 82% 29.75 in 10.0 mi SW 9.2 mph - N/A   Overcast
7:15 PM 59.0 °F 53.6 °F 82% 29.72 in 10.0 mi South 13.8 mph 17.3 mph N/A   Overcast
7:35 PM 57.2 °F 51.8 °F 82% 29.73 in 10.0 mi SSW 12.7 mph 19.6 mph N/A   Overcast
7:55 PM 57.2 °F 51.8 °F 82% 29.72 in 10.0 mi SW 8.1 mph - N/A   Scattered Clouds
8:15 PM 57.2 °F 51.8 °F 82% 29.74 in 10.0 mi SW 8.1 mph - N/A   Clear
8:35 PM 57.2 °F 51.8 °F 82% 29.76 in 10.0 mi WSW 9.2 mph - N/A   Mostly Cloudy
8:55 PM 59.0 °F 51.8 °F 77% 29.76 in 10.0 mi WSW 8.1 mph - N/A   Overcast
9:15 PM 59.0 °F 51.8 °F 77% 29.77 in 10.0 mi SW 9.2 mph - N/A   Overcast
9:35 PM 57.2 °F 51.8 °F 82% 29.77 in 10.0 mi SW 6.9 mph - N/A   Scattered Clouds
9:55 PM 55.4 °F 51.8 °F 88% 29.78 in 10.0 mi SW 5.8 mph - N/A   Scattered Clouds
10:15 PM 55.4 °F 51.8 °F 88% 29.79 in 10.0 mi WSW 4.6 mph - N/A   Mostly Cloudy
10:35 PM 55.4 °F 51.8 °F 88% 29.79 in 10.0 mi WSW 4.6 mph - N/A   Scattered Clouds
10:55 PM 53.6 °F 50.0 °F 88% 29.80 in 10.0 mi SW 3.5 mph - N/A   Scattered Clouds
11:15 PM 53.6 °F 50.0 °F 88% 29.79 in 10.0 mi SW 5.8 mph - N/A   Scattered Clouds
11:35 PM 53.6 °F 50.0 °F 88% 29.79 in 10.0 mi SW 4.6 mph - N/A   Scattered Clouds
11:55 PM 51.8 °F 48.2 °F 88% 29.80 in 10.0 mi SSW 4.6 mph - N/A   Scattered Clouds